Tracking 29040 objects as of 15-Jun-2024
HD Live streaming from Space Station
objects crossing your sky now

ATLAS 5 CENTAUR DEB

Track ATLAS 5 CENTAUR DEB now!


NORAD ID: 44039
Int'l Code: 2014-055BZ
Perigee: 7,594.2 km
Apogee: 34,848.2 km
Inclination: 19.9 °
Period: 760.2 minutes
Semi major axis: 27592 km
RCS: Unknown
Launch date: September 17, 2014
Source: United States (US)
Launch site: ()

Note: This is SATELLITE DEBRIS
Your satellite tracking list
Your tracking list is empty




NASA's NSSDC Master Catalog

Two Line Element Set (TLE):
1 44039U 14055BZ  24164.77017538 -.00000055  00000-0  00000-0 0  9991
2 44039  19.8947 203.5399 4938725  63.2199 338.6209  1.89419169 38560
Source of the keplerian elements: AFSPC